Regional Weather Roundup
Issued by NWS

Home | Current Version | Previous Version | Graphics & Text | Print | Product List | Glossary On
Versions: 1 2 3 4 5 6 7 8 9 10 11 12 13 14 15 16 17 18 19 20 21 22 23 24 25 26 27 28 29 30 31 32 33 34 35 36 37 38 39 40 41 42 43 44 45 46 47 48 49 50
000
ASUS45 KCYS 010510
RWRWY

WYOMING REGIONAL WEATHER ROUNDUP
NATIONAL WEATHER SERVICE CHEYENNE WY
1000 PM MST SAT FEB 28 2015

NOTE:  "FAIR" INDICATES FEW OR NO CLOUDS BELOW 12,000 FEET
WITH NO SIGNIFICANT WEATHER AND/OR OBSTRUCTIONS TO VISIBILITY.

WYZ001-010600-
YELLOWSTONE NATIONAL PARK

CITY           SKY/WX    TMP DP  RH WIND       PRES   REMARKS
LK YELLOWSTONE   N/A      1  -4  79 VRB5      29.96R WCI  -9
W YELLOWSTONE  NOT AVBL

$$
WYZ002>013-054>058-071-098>099-010600-
NORTHERN WYOMING

CITY           SKY/WX    TMP DP  RH WIND       PRES   REMARKS
JACKSON        FAIR      10   7  85 N12       29.92R WCI  -4
CODY           FAIR      14   7  73 CALM      30.09R
GREYBULL       CLOUDY    21   9  59 W8        30.13R WCI  11
WORLAND        CLOUDY    23  11  60 N7        30.12R WCI  15
SHERIDAN       FAIR       8   2  76 S6        30.15R WCI  -2
BUFFALO        FAIR      10   4  76 W5        30.09R WCI   2
GILLETTE       LGT SNOW  15  10  80 N3        30.12R
HULETT         CLOUDY    16   9  73 CALM      30.14R
NEWCASTLE      FAIR      16   9  73 NW7       30.13R WCI   6

$$
WYZ014>020-022>026-101>103-010600-
CENTRAL WYOMING

CITY           SKY/WX    TMP DP  RH WIND       PRES   REMARKS
BIG PINEY      FAIR      17  10  74 S6        29.92R WCI   9
PINEDALE       MOCLDY    18  10  73 CALM      29.93R
DUBOIS         FLURRIES  12   9  85 SE6       29.95R WCI   3
LANDER         CLOUDY    17   6  62 W6        30.04R WCI   9
RIVERTON       CLOUDY    17  11  77 E6        30.06R WCI   9
CASPER         FLURRIES  16  10  77 N12       30.05R WCI   3
DOUGLAS        CLOUDY    20  12  71 NE8       30.07R WCI  10

$$
WYZ021-027>030-104>119-010600-
SOUTHERN WYOMING

CITY           SKY/WX    TMP DP  RH WIND       PRES   REMARKS
EVANSTON       CLOUDY    23  20  88 E10       29.87R WCI  12
FORT BRIDGER   CLOUDY    22  22 100 NE8       29.92R WCI  13
ROCK SPRINGS   LGT SNOW  13   8  81 NE18      29.94R WCI  -4
DIXON          LGT SNOW  27  24  89 N6        29.89R WCI  20
RAWLINS        CLOUDY    15   7  70 NE15      29.92R WCI   0
SARATOGA       CLOUDY    16  12  86 NW12      29.90R FOG     WCI   3
LARAMIE        FLURRIES  15  10  80 SE13      29.88R WCI   1
CHEYENNE       CLOUDY    18  11  74 CALM      29.95S
TORRINGTON     CLOUDY    23  12  62 E7        30.07R WCI  15
PINE BLUFFS    CLOUDY    21  18  86 CALM      30.01F

$$


USA.gov is the U.S. government's official web portal to all federal, state and local government web resources and services.